Home   Weather   Khartoum   Past weeks

Flag for Sudan Past Weather in Khartoum, Sudan — Yesterday and Last 2 Weeks

Now
81 °F

Sunny.


Feels Like: 82 °F
Forecast: 65 / 96 °F
Wind: 5 mph from West

Location: Jeddah King Abdul Aziz International Airport

Current Time: Jan 18, 2017 at 11:08:24 am

Latest Report: Jan 18, 2017 at 10:00 am


Visibility: 5 mi

Pressure: 29.95 "Hg

Humidity: 54%

Dew Point: 63 °F

Location of KhartoumLocation

Past Weather in Khartoum — Graph

°F

Khartoum Temperature Yesterday

Maximum temperature yesterday: 82 °F (at 12:00 pm)
Minimum temperature yesterday: 70 °F (at 7:00 am)
Average temperature yesterday: 77 °F

High & Low Weather Summary for the Past Weeks

 TemperatureHumidityPressure
High88 °F (Jan 15, 12:00 pm)94% (Jan 17, 8:00 am)30.07 "Hg (Jan 17, 8:00 am)
Low63 °F (Jan 10, 7:00 am)34% (Jan 10, 12:00 pm)29.80 "Hg (Jan 14, 2:00 pm)
Average76 °F63%29.94 "Hg
* Reported Jan 3 10:00 am — Jan 18 10:00 am, Khartoum, Weather by CustomWeather, © 2017

Note: Actual official high and low records may vary slightly from our data, if they occured in-between our weather recording intervals... More about our weather records

Advertising

Khartoum Weather History for the Previous 24 Hours

Scroll right to see more
 ConditionsComfort  
Time TempWeatherWind HumidityBarometerVisibility
10:00 am
Wed, Jan 18
81 °FSunny.5 mph54%29.95 "Hg5 mi
9:00 am77 °FSunny.2 mph61%29.95 "Hg5 mi
8:00 am70 °FSunny.No wind83%29.95 "Hg5 mi
7:00 am68 °FClear.No wind83%29.92 "Hg4 mi
6:00 am70 °FClear.3 mph78%29.92 "Hg10 mi
5:00 am70 °FClear.3 mph78%29.89 "Hg10 mi
4:00 am70 °FClear.3 mph83%29.92 "Hg10 mi
3:00 am72 °FClear.5 mph78%29.92 "Hg10 mi
2:00 am73 °FClear.3 mph78%29.92 "Hg10 mi
1:00 am73 °FClear.5 mph78%29.92 "Hg10 mi
12:00 am75 °FClear.6 mph78%29.95 "Hg10 mi
11:00 pm
Tue, Jan 17
75 °FClear.7 mph74%29.95 "Hg10 mi
10:00 pm77 °FClear.6 mph69%29.95 "Hg10 mi
9:00 pm77 °FClear.8 mph69%29.95 "Hg10 mi
8:00 pm77 °FClear.5 mph69%29.92 "Hg10 mi
7:00 pm79 °FClear.6 mph70%29.92 "Hg10 mi
6:00 pm79 °FSunny.5 mph70%29.89 "Hg10 mi
5:00 pm81 °FSunny.10 mph66%29.89 "Hg10 mi
4:00 pm81 °FSunny.10 mph66%29.86 "Hg10 mi
3:00 pm82 °FSunny.12 mph62%29.86 "Hg10 mi
2:00 pm82 °FSunny.12 mph62%29.86 "Hg10 mi
1:00 pm82 °FSunny.12 mph62%29.89 "Hg10 mi
12:00 pm82 °FSunny.9 mph62%29.92 "Hg10 mi
11:00 am81 °FClear.5 mph62%29.95 "Hg5 mi
Weather by CustomWeather, © 2017

See weather overviewHow to use our weather pages